Location: Davayat
(45.9471°N, 3.1105°E)
Time: 18:13:49
(UTC+00:00)

USA 281 - Pass Details

Date: 01 December 2020
Orbit: 1074 x 1084 km, 106.0° (Epoch: 08 January)

Event Time Altitude Azimuth Distance (km) Brightness Sun altitude
Rises 19:03:48 0° 169° (SSE) 3,869 6.0 -30.5°
Reaches altitude 10° 19:06:23 10° 174° (S) 2,915 5.4 -30.9°
Maximum altitude 19:12:47 54° 250° (WSW) 1,296 3.8 -32.1°
Drops below altitude 10° 19:19:12 10° 327° (NNW) 2,926 5.8 -33.2°
Sets 19:21:48 0° 332° (NNW) 3,885 6.5 -33.6°
